TimeEST,TemperatureF,Dew PointF,Humidity,Sea Level PressureIn,VisibilityMPH,Wind Direction,Wind SpeedMPH,Gust SpeedMPH,PrecipitationIn,Events,Conditions,WindDirDegrees,DateUTC
12:53 AM,28.9,26.1,89,29.93,10.0,Calm,Calm,-,N/A,,Clear,0,2013-02-13 05:53:00
1:53 AM,30.0,27.0,88,29.92,10.0,Calm,Calm,-,N/A,,Clear,0,2013-02-13 06:53:00
2:53 AM,32.0,27.0,82,29.90,10.0,NNE,3.5,-,N/A,,Partly Cloudy,20,2013-02-13 07:53:00
3:53 AM,30.9,27.0,85,29.89,10.0,NE,3.5,-,N/A,,Scattered Clouds,40,2013-02-13 08:53:00
4:53 AM,33.1,28.9,85,29.86,8.0,NNE,5.8,-,N/A,,Overcast,30,2013-02-13 09:53:00
5:53 AM,33.1,28.9,85,29.85,7.0,NNE,6.9,-,N/A,,Overcast,20,2013-02-13 10:53:00
6:53 AM,32.0,28.0,85,29.81,7.0,NNE,11.5,-,N/A,,Overcast,20,2013-02-13 11:53:00
7:53 AM,32.0,27.0,82,29.82,6.0,North,6.9,-,N/A,,Haze,10,2013-02-13 12:53:00
8:49 AM,32.0,26.6,80,29.84,5.0,North,4.6,-,N/A,,Haze,10,2013-02-13 13:49:00
8:53 AM,32.0,27.0,82,29.86,5.0,Calm,Calm,-,N/A,,Haze,0,2013-02-13 13:53:00
9:53 AM,32.0,27.0,82,29.88,5.0,NNW,4.6,-,N/A,,Haze,340,2013-02-13 14:53:00
10:00 AM,32.0,26.6,80,29.86,2.0,North,8.1,-,0.00,Snow,Light Snow,350,2013-02-13 15:00:00
10:13 AM,30.2,28.4,93,29.87,1.0,NNW,3.5,-,0.00,Snow,Light Snow,340,2013-02-13 15:13:00
10:53 AM,30.9,30.0,96,29.87,0.5,NNE,4.6,-,0.00,Fog-Snow,Snow,30,2013-02-13 15:53:00
11:18 AM,30.2,30.2,100,29.85,0.2,NNE,3.5,-,0.02,Fog-Snow,Heavy Snow,20,2013-02-13 16:18:00
11:25 AM,30.2,30.2,100,29.85,0.5,North,5.8,-,0.02,Fog-Snow,Snow,10,2013-02-13 16:25:00
11:53 AM,30.9,30.0,96,29.86,1.0,North,4.6,-,0.02,Snow,Light Snow,350,2013-02-13 16:53:00
12:08 PM,30.2,28.4,93,29.84,1.0,North,5.8,-,0.00,Snow,Light Snow,350,2013-02-13 17:08:00
12:39 PM,30.2,30.2,100,29.83,0.8,NNW,4.6,-,0.00,Snow,Light Snow,340,2013-02-13 17:39:00
12:53 PM,30.9,28.9,92,29.85,0.5,NNW,5.8,-,0.00,Fog-Snow,Snow,340,2013-02-13 17:53:00
1:02 PM,30.2,30.2,100,29.82,0.5,Calm,Calm,-,0.00,Fog-Snow,Snow,0,2013-02-13 18:02:00
1:11 PM,30.2,30.2,100,29.82,0.5,Calm,Calm,-,0.00,Fog-Snow,Snow,0,2013-02-13 18:11:00
1:53 PM,30.9,30.0,96,29.83,0.8,Calm,Calm,-,0.00,Snow,Light Snow,0,2013-02-13 18:53:00
2:02 PM,30.2,30.2,100,29.81,1.2,Calm,Calm,-,0.00,Snow,Light Snow,0,2013-02-13 19:02:00
2:15 PM,32.0,30.2,93,29.81,2.5,Calm,Calm,-,0.00,,Overcast,0,2013-02-13 19:15:00
2:21 PM,32.0,30.2,93,29.81,3.0,Calm,Calm,-,0.00,,Overcast,0,2013-02-13 19:21:00
2:53 PM,33.1,30.0,89,29.83,5.0,NNW,5.8,-,0.00,,Overcast,330,2013-02-13 19:53:00
3:53 PM,34.0,28.9,82,29.84,7.0,West,4.6,-,N/A,,Mostly Cloudy,270,2013-02-13 20:53:00
4:12 PM,33.8,30.2,87,29.83,7.0,West,4.6,-,N/A,,Mostly Cloudy,270,2013-02-13 21:12:00
4:25 PM,33.8,28.4,81,29.84,7.0,West,3.5,-,N/A,,Mostly Cloudy,260,2013-02-13 21:25:00
4:53 PM,34.0,30.0,85,29.85,6.0,SW,4.6,-,N/A,,Partly Cloudy,220,2013-02-13 21:53:00
5:53 PM,33.1,28.9,85,29.86,7.0,SW,4.6,-,N/A,,Partly Cloudy,230,2013-02-13 22:53:00
6:53 PM,30.0,28.9,96,29.89,6.0,SSW,3.5,-,N/A,,Clear,210,2013-02-13 23:53:00
7:53 PM,30.0,28.9,96,29.91,3.0,Calm,Calm,-,N/A,,Clear,0,2013-02-14 00:53:00
8:53 PM,27.0,27.0,100,29.93,3.0,Calm,Calm,-,N/A,,Clear,0,2013-02-14 01:53:00
9:53 PM,26.1,26.1,100,29.94,3.0,Calm,Calm,-,N/A,,Clear,0,2013-02-14 02:53:00
9:56 PM,26.6,24.8,93,29.92,2.0,Calm,Calm,-,N/A,,Clear,0,2013-02-14 02:56:00
10:03 PM,24.8,24.8,100,29.92,3.0,Calm,Calm,-,N/A,Fog,Patches of Fog,0,2013-02-14 03:03:00
10:04 PM,24.8,24.8,100,29.92,1.0,Calm,Calm,-,N/A,Fog,Patches of Fog,0,2013-02-14 03:04:00
10:53 PM,24.1,24.1,100,29.94,0.2,Calm,Calm,-,N/A,Fog,Light Freezing Fog,0,2013-02-14 03:53:00
11:53 PM,23.0,21.9,96,29.94,0.2,Calm,Calm,-,N/A,Fog,Light Freezing Fog,0,2013-02-14 04:53:00